Temperature
13 13 13 13 12 12 12 12 12 11 11 11 11 11 11 11 11 11 11 11 11 11 11 11 11 11 11 11 11 11 11 11 11 11 11 11 11 11
13 13 12 12 12 12 12 12 12 12 11 11 11 11 11 11 11 11 11 11 11 11 11 11 11 11 11 11 11 11 11 11 11 11 11 11 11 11
12 12 12 12 12 12 12 12 12 11 11 11 11 11 11 11 11 11 11 11 11 11 11 11 11 11 11 11 11 11 11 11 11 11 10 10 10 10
12 12 12 12 12 12 12 11 11 11 11 11 11 10 11 11 11 10 10 11 11 11 11 11 11 11 10 10 11 10 10 10 11 10 10 10 10 10
12 12 12 12 12 12 12 11 11 11 11 11 11 10 10 10 10 10 10 10 10 10 10 10 10 10 10 10 10 10 10 10 10 10 10 10 10 10
12 12 12 12 12 11 11 11 11 11 11 10 10 10 10 10 10 10 10 10 10 10 10 10 10 10 10 10 10 10 10 10 10 10 10 10 9 9
12 12 11 11 11 11 11 11 11 11 10 10 10 10 10 10 10 10 10 10 10 10 10 10 10 10 10 10 10 10 10 10 10 10 9 9 9 9
11 11 11 11 11 11 11 11 11 10 10 10 10 10 10 10 10 9 9 9 9 9 9 10 10 10 10 10 10 9 9 10 9 9 9 9 9 9
11 11 11 11 11 11 11 11 10 10 10 10 10 10 10 9 9 9 9 9 9 9 9 9 9 9 9 9 9 9 9 9 9 9 9 9 9 9
11 11 11 11 11 11 10 10 10 10 10 10 9 9 9 9 9 9 9 9 9 9 9 9 9 9 9 9 9 9 9 9 9 9 9 9 9 9
10 10 10 10 10 10 10 10 10 10 10 9 9 9 9 9 9 9 9 9 9 9 9 9 9 9 9 9 9 9 9 9 9 9 9 9 8 8
10 10 10 10 10 10 10 10 10 10 9 9 9 9 9 9 9 9 9 9 8 8 9 8 8 8 8 9 9 9 9 9 9 8 8 8 8 8
10 10 10 9 9 9 9 9 9 9 9 9 9 9 9 9 9 8 8 8 8 8 8 8 8 8 8 8 8 8 8 8 8 8 8 8 8 8
9 9 9 9 9 9 9 9 9 9 8 8 8 8 8 8 8 8 8 8 8 8 8 8 8 8 8 8 8 8 8 8 8 8 8 8 8 8
9 9 9 9 9 9 9 9 8 8 8 8 8 8 8 8 8 8 8 8 8 8 8 8 8 8 8 8 8 8 8 8 8 8 8 8 8 7
9 8 8 8 8 8 8 8 8 8 8 8 8 8 8 8 8 8 8 8 8 8 8 7 7 7 7 7 7 7 7 7 7 7 7 7 7 7
8 8 8 8 8 8 8 8 8 8 8 7 7 7 7 7 7 7 7 7 7 7 7 7 7 7 7 7 7 7 7 7 7 7 7 7 7 7
7 7 7 7 7 7 7 7 7 7 7 7 7 7 7 7 7 7 7 7 7 7 7 7 7 7 7 7 7 7 7 7 7 6 6 6 6 6
7 7 7 7 7 6 6 6 6 6 6 6 6 6 6 6 6 6 6 6 6 6 6 6 6 6 6 6 6 6 6 6 6 6 6 6 6 6
6 6 6 6 6 6 6 6 6 6 6 6 6 6 6 6 6 6 6 6 6 6 6 6 6 6 5 5 5 6 6 5 5 5 5 5 5 5
6 6 6 6 6 6 5 5 5 5 5 5 5 5 5 5 5 5 5 5 5 5 5 5 5 5 5 5 5 5 5 5 5 5 5 5 5 5
6 6 5 5 5 5 5 5 5 5 5 5 5 5 5 5 5 5 5 5 5 5 5 5 5 4 4 4 4 4 4 4 4 4 4 4 4 4
5 5 5 5 5 5 5 5 5 4 4 4 4 4 4 4 4 4 4 4 4 4 4 4 4 4 4 4 4 4 4 4 4 4 4 4 3 3
Wind_Speed
1 1 1 1 1 1 1 2 2 1 1 0 1 1 3 5 6 5 3 3 3 4 4 4 4 4 4 5 4 5 4 5 5 5 5 6 6 7
1 1 1 0 1 1 1 0 1 2 1 1 0 0 2 3 4 4 3 3 4 4 4 3 3 3 3 4 4 4 4 3 3 4 5 5 6 6
1 1 1 1 1 1 1 1 1 1 1 1 1 0 2 2 3 3 3 3 4 3 4 3 3 3 3 3 3 3 3 3 3 3 4 4 5 5
1 1 1 1 1 0 0 0 0 1 2 1 1 0 0 1 2 2 2 2 3 3 3 3 3 2 2 2 2 2 2 3 3 3 3 3 3 3
1 1 1 1 1 1 1 0 0 1 1 1 1 1 0 1 1 1 1 2 2 3 3 2 2 2 2 1 1 1 2 2 2 2 2 2 2 2
2 1 1 2 2 1 1 1 1 1 1 1 1 1 1 1 1 1 0 0 0 2 2 2 2 2 2 2 1 1 1 2 3 3 2 2 1 2
1 2 2 2 2 2 1 1 1 2 1 1 1 1 1 1 1 1 1 1 1 1 1 2 2 2 2 3 3 3 3 3 3 3 3 2 2 2
2 2 2 2 3 2 0 1 2 3 3 2 2 2 2 2 2 1 1 1 1 2 1 2 2 1 3 4 4 5 5 4 5 5 4 3 3 3
2 1 1 1 2 2 1 1 2 2 4 3 3 4 4 3 3 2 2 2 3 3 1 2 2 2 3 5 6 6 6 6 6 6 6 5 5 4
1 2 2 2 1 1 2 1 2 1 3 3 3 4 3 4 4 4 4 2 2 2 3 2 2 2 3 5 8 9 8 6 6 7 7 7 7 6
1 1 2 2 1 1 2 2 2 2 4 4 4 4 4 4 4 2 2 1 2 3 2 2 2 2 2 3 7 10 9 8 7 6 7 7 8 7
1 2 1 1 1 1 2 2 2 3 2 2 2 3 3 4 5 4 4 3 2 2 2 2 2 1 2 2 4 6 7 7 8 7 7 7 7 5
2 1 2 2 2 3 3 3 4 3 2 2 2 2 2 2 3 4 4 3 3 3 3 2 2 2 2 2 2 4 6 5 6 7 8 9 9 7
2 2 2 3 4 5 5 5 5 2 1 2 2 2 3 3 2 4 4 4 4 4 4 3 2 3 2 2 2 2 3 5 6 5 6 8 8 9
3 3 4 5 5 5 6 6 4 2 2 2 3 3 3 3 3 2 3 3 2 3 4 4 3 2 2 3 2 2 2 3 5 4 5 5 5 5
3 3 4 5 4 4 4 4 3 3 3 3 3 3 2 2 2 2 2 2 1 2 2 3 4 3 3 3 3 3 2 3 3 4 4 4 5 6
2 1 1 1 2 2 3 3 3 3 3 2 2 3 2 2 2 2 2 2 2 3 2 2 2 3 3 3 3 3 3 3 3 3 3 3 4 6
1 1 2 2 3 3 3 3 3 3 3 3 3 3 3 3 3 2 2 3 3 3 3 2 1 1 2 2 4 4 3 3 3 3 2 3 4 4
2 3 3 3 3 3 3 3 3 3 3 3 3 4 3 3 3 3 3 3 3 3 3 2 2 2 3 4 3 4 3 2 2 2 3 3 4 4
3 4 4 4 3 3 3 3 3 2 2 3 3 3 3 3 3 3 3 4 4 3 3 2 3 4 5 4 3 3 5 3 3 3 3 3 2 4
4 4 4 4 4 4 4 3 3 2 2 2 2 3 3 3 3 4 3 5 4 3 4 5 5 5 3 1 2 3 3 5 5 3 3 2 2 2
4 4 3 3 3 3 3 3 3 3 3 3 3 3 3 3 4 4 4 4 4 4 5 3 2 2 2 4 5 4 3 3 4 5 4 4 3 4
4 3 3 3 3 3 3 3 4 3 3 3 3 3 3 3 3 4 4 4 4 4 3 3 2 2 3 4 4 4 4 3 2 2 3 6 7 7
Wind_Direction
109 86 82 68 27 48 91 135 147 168 289 329 25 65 103 99 112 109 98 115 108 107 93 81 78 81 79 72 65 59 65 67 73 81 85 84 81 77
133 120 97 101 55 51 62 9 102 140 192 274 321 279 93 100 112 111 97 106 118 124 117 105 93 87 82 73 66 57 69 76 81 83 89 88 86 80
150 184 189 157 104 52 43 34 46 105 145 288 324 82 78 89 91 104 100 110 121 128 132 128 120 105 91 84 72 57 70 85 92 90 94 91 87 83
189 195 201 151 125 131 83 96 134 155 156 204 276 223 151 136 122 115 102 106 123 128 137 145 142 131 110 99 85 75 82 96 101 98 100 92 83 84
183 200 192 149 162 162 149 63 155 119 129 162 239 263 288 136 108 100 111 121 140 150 156 165 171 165 150 133 121 111 106 114 124 122 114 99 83 90
177 186 186 167 154 153 159 172 140 120 124 150 200 228 235 213 149 174 322 291 221 167 162 179 194 192 190 195 189 183 174 168 163 155 136 118 112 120
195 195 198 156 118 121 163 193 184 182 178 185 217 225 231 215 219 217 222 244 268 189 172 185 173 170 188 208 210 214 212 206 190 180 169 157 161 170
219 209 193 148 121 113 144 226 204 196 195 199 226 217 236 235 220 220 220 222 262 220 174 224 178 197 196 192 201 206 212 214 202 196 195 194 192 193
212 191 197 163 141 140 206 258 272 237 206 209 215 225 222 219 203 213 237 242 239 216 170 243 211 212 201 208 207 208 209 209 207 206 206 207 206 203
208 183 173 150 139 140 181 210 250 261 247 236 227 231 224 208 205 208 217 239 269 215 167 216 226 224 219 199 207 205 207 207 212 212 213 215 215 215
225 152 144 149 197 166 174 208 234 271 278 266 266 253 251 232 217 188 191 195 260 248 200 192 222 233 228 215 211 210 207 208 214 223 220 219 219 220
236 210 203 188 247 221 202 206 229 256 256 269 273 267 240 221 223 202 188 197 233 247 218 185 212 206 257 231 194 196 207 218 221 227 227 221 217 212
252 232 217 221 247 251 244 221 238 253 237 229 238 242 225 213 220 218 199 191 209 237 218 175 205 214 217 242 218 198 194 205 215 226 227 222 217 209
255 246 237 241 251 253 245 249 251 259 238 227 240 240 228 227 234 223 224 218 213 217 209 188 209 212 217 245 254 226 205 204 204 213 218 227 228 225
255 257 259 255 248 243 243 247 241 231 223 225 236 244 234 229 223 227 233 230 229 228 217 222 210 211 205 223 237 231 236 236 210 206 206 207 214 216
268 263 258 250 244 248 247 238 230 227 216 223 233 242 237 231 235 225 225 225 248 265 243 225 215 201 223 230 223 238 225 221 218 214 205 212 217 212
272 269 281 253 235 237 239 235 228 226 228 231 236 246 244 237 238 231 217 210 222 235 243 259 232 215 201 203 228 236 230 232 227 212 203 215 224 216
248 237 244 244 243 240 242 242 233 227 229 227 229 236 235 234 238 234 225 215 225 233 231 224 214 318 327 297 230 231 236 230 226 214 205 212 230 226
221 234 235 234 241 242 246 246 245 239 223 219 226 231 234 236 235 230 228 227 228 235 237 215 198 201 236 264 274 234 230 233 214 219 223 221 230 228
220 229 234 234 234 236 242 250 250 248 233 229 230 229 226 230 230 233 232 233 232 234 234 222 209 212 225 240 254 264 236 222 215 226 236 243 243 237
229 235 236 233 230 229 233 234 236 236 236 232 236 235 229 228 233 232 234 243 237 236 236 235 234 229 226 224 263 268 265 241 231 221 212 217 248 248
234 241 243 240 233 228 222 220 226 232 233 233 240 237 234 234 238 236 230 235 236 239 248 252 239 214 212 228 245 258 266 274 259 256 248 220 202 215
234 237 236 235 233 229 221 221 225 230 229 231 239 242 238 239 242 242 239 235 236 235 242 250 250 243 238 234 240 251 251 253 258 251 268 262 248 246
Height
1533 1534 1534 1534 1534 1534 1534 1535 1535 1534 1535 1535 1535 1534 1534 1533 1532 1532 1531 1531 1531 1530 1530 1530 1530 1530 1530 1530 1530 1530 1530 1530 1530 1531 1531 1531 1531 1531
1532 1533 1533 1533 1533 1533 1533 1533 1534 1534 1534 1534 1534 1534 1533 1532 1532 1531 1531 1530 1530 1530 1530 1530 1529 1529 1529 1529 1529 1529 1529 1529 1530 1530 1530 1530 1530 1530
1531 1531 1532 1532 1532 1532 1532 1532 1532 1533 1532 1532 1533 1533 1532 1532 1531 1530 1530 1529 1529 1529 1529 1529 1529 1529 1528 1528 1528 1528 1528 1529 1529 1529 1529 1529 1530 1530
1529 1529 1530 1530 1530 1530 1531 1531 1531 1531 1531 1531 1531 1531 1531 1531 1530 1529 1529 1528 1528 1528 1528 1528 1528 1528 1528 1527 1527 1527 1527 1527 1527 1528 1528 1528 1528 1529
1527 1527 1528 1528 1528 1528 1529 1529 1529 1529 1529 1529 1529 1529 1529 1529 1529 1528 1528 1527 1527 1527 1527 1527 1527 1526 1526 1526 1526 1526 1526 1526 1526 1526 1526 1527 1527 1527
1525 1525 1525 1526 1526 1526 1526 1526 1527 1527 1527 1527 1527 1527 1527 1527 1527 1527 1526 1526 1526 1526 1526 1526 1525 1525 1525 1525 1525 1525 1524 1524 1524 1525 1525 1525 1525 1526
1522 1523 1523 1524 1524 1524 1524 1524 1524 1524 1524 1524 1525 1525 1525 1525 1525 1525 1525 1524 1524 1525 1524 1524 1524 1524 1523 1523 1523 1523 1523 1522 1522 1523 1523 1523 1524 1524
1520 1520 1521 1521 1521 1521 1521 1521 1522 1522 1522 1522 1522 1522 1522 1522 1523 1523 1523 1522 1522 1523 1522 1522 1522 1522 1522 1522 1521 1521 1521 1520 1520 1521 1521 1522 1522 1522
1517 1517 1518 1518 1518 1518 1518 1519 1519 1519 1520 1520 1519 1519 1520 1520 1520 1520 1520 1520 1520 1520 1520 1519 1520 1519 1519 1519 1519 1519 1519 1519 1518 1519 1519 1519 1520 1520
1513 1514 1514 1515 1515 1515 1515 1515 1515 1516 1516 1516 1516 1517 1517 1517 1517 1518 1518 1518 1518 1518 1518 1517 1517 1517 1517 1517 1517 1517 1517 1516 1516 1516 1516 1517 1517 1518
1510 1510 1511 1511 1511 1512 1512 1511 1511 1511 1512 1513 1513 1513 1514 1514 1514 1515 1515 1515 1514 1514 1514 1514 1514 1514 1514 1513 1514 1514 1514 1514 1514 1513 1514 1514 1514 1515
1506 1507 1507 1508 1508 1508 1508 1508 1508 1508 1508 1508 1509 1509 1510 1510 1510 1511 1511 1511 1511 1511 1511 1511 1511 1511 1510 1510 1510 1510 1510 1511 1511 1511 1511 1511 1511 1512
1501 1502 1503 1504 1504 1504 1504 1504 1504 1505 1505 1505 1505 1505 1505 1506 1506 1507 1508 1508 1508 1507 1508 1508 1508 1508 1508 1507 1507 1507 1507 1507 1507 1507 1507 1508 1508 1508
1497 1498 1499 1500 1500 1500 1500 1501 1501 1501 1501 1501 1501 1501 1501 1502 1502 1503 1504 1504 1504 1504 1504 1505 1504 1504 1504 1503 1503 1503 1503 1504 1504 1504 1504 1504 1504 1504
1493 1494 1495 1495 1496 1496 1496 1497 1497 1497 1496 1496 1496 1497 1497 1498 1498 1499 1499 1500 1500 1500 1500 1500 1500 1500 1500 1500 1499 1499 1499 1499 1500 1500 1500 1500 1500 1500
1489 1490 1490 1491 1491 1491 1491 1492 1492 1492 1492 1492 1492 1493 1493 1493 1494 1494 1494 1495 1495 1495 1496 1496 1496 1496 1496 1496 1496 1495 1495 1495 1495 1496 1496 1496 1496 1497
1485 1485 1485 1485 1486 1486 1486 1487 1487 1487 1487 1488 1488 1488 1488 1488 1489 1489 1490 1490 1490 1490 1491 1491 1492 1492 1492 1492 1491 1491 1491 1491 1491 1492 1492 1492 1492 1492
1481 1480 1480 1480 1481 1481 1481 1481 1482 1482 1483 1483 1483 1483 1483 1484 1484 1485 1485 1485 1486 1486 1486 1487 1487 1487 1487 1487 1488 1487 1487 1487 1487 1487 1487 1487 1487 1488
1476 1476 1476 1476 1476 1476 1476 1477 1477 1478 1478 1479 1479 1479 1479 1479 1480 1480 1480 1481 1481 1481 1482 1482 1482 1482 1482 1481 1482 1483 1483 1482 1482 1482 1483 1483 1482 1483
1472 1472 1472 1472 1472 1472 1472 1473 1473 1473 1474 1474 1474 1474 1474 1474 1475 1475 1475 1476 1476 1476 1476 1477 1477 1477 1477 1478 1477 1477 1478 1478 1478 1477 1478 1478 1478 1478
1467 1468 1468 1468 1468 1468 1468 1468 1468 1469 1469 1469 1469 1469 1469 1470 1470 1470 1470 1471 1471 1471 1471 1471 1471 1473 1473 1473 1472 1471 1472 1473 1473 1473 1473 1473 1472 1472
1463 1463 1463 1463 1463 1463 1464 1464 1464 1464 1464 1464 1464 1464 1464 1464 1465 1465 1465 1465 1465 1466 1466 1466 1467 1467 1467 1467 1466 1466 1466 1467 1467 1468 1468 1468 1467 1466
1458 1458 1458 1459 1459 1459 1459 1459 1459 1459 1459 1459 1459 1459 1459 1460 1460 1460 1460 1460 1460 1461 1461 1461 1461 1461 1461 1461 1461 1461 1461 1461 1461 1461 1461 1462 1462 1462